EW8956 Weather Reports


Display with metric or nautical units.
time (UTC)temp
F
wind
direction
speed
MPH
gust
MPH
rain 1hr
in
rain 24hr
in
rain mn
in
humidity
%
barometer
mb
20260506081557 63 205 3.0 12.0 0.00 0.00 0.00 68 1014.1
20260506073048 63 244 3.0 12.0 0.00 0.00 0.00 68 1013.9
20260506071606 63 0 2.0 14.0 0.00 0.00 0.00 69 1013.9
20260506061546 63 257 1.0 5.0 0.00 0.00 0.00 66 1014.6
20260506044605 65 105 2.0 9.0 0.00 0.00 0.00 59 1014.9
20260506043052 66 173 2.0 9.0 0.00 0.00 0.00 57 1014.9
20260506041553 66 0 1.0 11.0 0.00 0.00 0.00 55 1014.9
20260506040053 67 94 1.0 6.0 0.00 0.00 0.00 53 1014.7
20260506034547 67 199 3.0 12.0 0.00 0.00 0.00 51 1014.5
20260506033048 68 153 3.0 12.0 0.00 0.00 0.00 50 1014.7
20260506031555 69 157 1.0 10.0 0.00 0.00 0.00 49 1014.4
20260506030110 69 157 0.0 4.0 0.00 0.00 0.00 48 1014.6
20260506024549 69 0 0.0 7.0 0.00 0.00 0.00 48 1014.7
20260506023046 70 0 0.0 5.0 0.00 0.00 0.00 47 1014.9
20260506021556 70 67 0.0 7.0 0.00 0.00 0.00 46 1014.9
20260506020050 71 246 1.0 6.0 0.00 0.00 0.00 46 1014.9
20260506014550 71 163 1.0 7.0 0.00 0.00 0.00 45 1014.7
20260506013050 71 0 0.0 5.0 0.00 0.00 0.00 45 1014.6
20260506011555 72 246 0.0 3.0 0.00 0.00 0.00 44 1014.5
20260506010056 72 0 0.0 6.0 0.00 0.00 0.00 43 1014.3
20260506004551 73 186 1.0 5.0 0.00 0.00 0.00 43 1014.2
20260506003050 73 244 1.0 5.0 0.00 0.00 0.00 41 1014.0
20260506001547 74 166 1.0 7.0 0.00 0.00 0.00 40 1014.1
20260506000053 75 205 0.0 9.0 0.00 0.00 0.00 39 1014.1
20260505234607 75 221 1.0 17.0 0.00 0.00 0.00 38 1013.8
20260505233051 76 221 4.0 14.0 0.00 0.00 0.00 36 1013.7
20260505231552 76 215 2.0 15.0 0.00 0.00 0.00 36 1013.6
20260505230051 77 0 2.0 12.0 0.00 0.00 0.00 35 1013.5
20260505224549 77 200 3.0 12.0 0.00 0.00 0.00 35 1013.6
20260505223055 77 213 0.0 14.0 0.00 0.00 0.00 34 1013.7
20260505221548 78 243 4.0 16.0 0.00 0.00 0.00 34 1013.8
20260505220050 78 170 4.0 14.0 0.00 0.00 0.00 35 1013.8
20260505214554 78 217 4.0 19.0 0.00 0.00 0.00 34 1014.0
20260505213043 79 232 3.0 10.0 0.00 0.00 0.00 33 1013.9
20260505211601 79 0 4.0 19.0 0.00 0.00 0.00 32 1014.1
20260505210048 80 279 1.0 13.0 0.00 0.00 0.00 32 1014.1
20260505204549 79 228 5.0 18.0 0.00 0.00 0.00 32 1014.1
20260505203110 80 171 3.0 11.0 0.00 0.00 0.00 32 1014.5
20260505201543 79 167 5.0 18.0 0.00 0.00 0.00 32 1014.4
20260505200040 80 105 3.0 14.0 0.00 0.00 0.00 30 1014.5
20260505194549 80 177 3.0 13.0 0.00 0.00 0.00 32 1014.8
20260505193049 79 134 4.0 14.0 0.00 0.00 0.00 35 1015.0
20260505191550 79 169 5.0 13.0 0.00 0.00 0.00 34 1015.1
20260505190043 79 261 2.0 11.0 0.00 0.00 0.00 34 1015.3
20260505184550 78 151 3.0 15.0 0.00 0.00 0.00 36 1015.7
20260505183050 78 209 5.0 24.0 0.00 0.00 0.00 35 1015.8
20260505181551 77 146 3.0 15.0 0.00 0.00 0.00 35 1016.0
20260505180056 78 216 4.0 10.0 0.00 0.00 0.00 35 1016.3
20260505174551 76 246 3.0 17.0 0.00 0.00 0.00 38 1016.2
20260505173057 76 225 5.0 13.0 0.00 0.00 0.00 37 1016.3
20260505171559 77 97 2.0 12.0 0.00 0.00 0.00 38 1016.3
20260505170055 77 190 2.0 9.0 0.00 0.00 0.00 37 1016.6
20260505164551 76 186 3.0 17.0 0.00 0.00 0.00 37 1016.7
20260505163051 77 167 1.0 11.0 0.00 0.00 0.00 38 1016.8
20260505161553 76 86 3.0 9.0 0.00 0.00 0.00 37 1016.8
20260505153053 75 208 2.0 10.0 0.00 0.00 0.00 43 1017.2
20260505151551 73 211 2.0 8.0 0.00 0.00 0.00 46 1017.3
20260505124551 62 0 1.0 7.0 0.00 0.00 0.00 66 1017.1
20260505123054 61 212 1.0 10.0 0.00 0.00 0.00 68 1016.9
20260505121549 60 0 1.0 13.0 0.00 0.00 0.00 70 1017.0
20260505120106 59 209 0.0 9.0 0.00 0.00 0.00 71 1016.9
20260505114547 58 161 1.0 9.0 0.00 0.00 0.00 72 1017.0
20260505113057 56 0 0.0 5.0 0.00 0.00 0.00 74 1016.8
20260505111545 55 0 0.0 2.0 0.00 0.00 0.00 76 1016.7
20260505101557 55 0 0.0 2.0 0.00 0.00 0.00 74 1016.5
20260505100046 55 0 0.0 3.0 0.00 0.00 0.00 73 1016.4
20260505094558 55 0 0.0 1.0 0.00 0.00 0.00 73 1016.4
20260505093053 55 0 0.0 1.0 0.00 0.00 0.00 71 1016.3
20260505091550 55 0 0.0 0.0 0.00 0.00 0.00 71 1016.3
20260505090056 56 0 0.0 1.0 0.00 0.00 0.00 70 1016.1
20260505084548 57 0 0.0 1.0 0.00 0.00 0.00 68 1015.8
20260505083103 57 0 0.0 1.0 0.00 0.00 0.00 66 1015.7